CW3794 Weather Reports


Display with metric or nautical units.
time (UTC)temp
F
wind
direction
speed
MPH
gust
MPH
rain 1hr
in
rain 24hr
in
rain mn
in
humidity
%
barometer
mb
20260505035905 72 255 0.0 0.0 0.00 0.00 0.00 42 1010.5
20260505035405 72 255 0.0 0.0 0.00 0.00 0.00 42 1010.5
20260505034405 72 255 0.0 0.0 0.00 0.00 0.00 42 1010.2
20260505033904 72 255 0.0 0.0 0.00 0.00 0.00 42 1010.1
20260505032905 72 255 0.0 0.0 0.00 0.00 0.00 42 1009.9
20260505032405 72 256 0.0 0.0 0.00 0.00 0.00 42 1009.9
20260505031905 72 255 0.0 0.0 0.00 0.00 0.00 42 1009.8
20260505031405 72 255 0.0 0.0 0.00 0.00 0.00 42 1009.8
20260505030904 72 256 0.0 0.0 0.00 0.00 0.00 42 1009.7
20260505025905 72 256 0.0 0.0 0.00 0.00 0.00 42 1009.5
20260505025405 72 256 0.0 0.0 0.00 0.00 0.00 42 1009.6
20260505024905 72 256 0.0 0.0 0.00 0.00 0.00 42 1009.7
20260505024405 72 256 0.0 0.0 0.00 0.00 0.00 42 1009.6
20260505023905 72 256 0.0 0.0 0.00 0.00 0.00 42 1009.6
20260505023404 72 256 0.0 0.0 0.00 0.00 0.00 42 1009.6
20260505022905 73 263 0.0 0.0 0.00 0.00 0.00 42 1009.5
20260505022405 73 263 0.0 0.0 0.00 0.00 0.00 42 1009.6
20260505021905 73 263 0.0 0.0 0.00 0.00 0.00 42 1009.3
20260505021404 73 262 0.0 0.0 0.00 0.00 0.00 42 1009.3
20260505020905 73 262 0.0 0.0 0.00 0.00 0.00 42 1009.4
20260505015405 73 252 0.0 0.0 0.00 0.00 0.00 40 1009.4
20260505014905 73 255 0.0 0.0 0.00 0.00 0.00 40 1009.3
20260505014405 74 255 0.0 0.0 0.00 0.00 0.00 40 1009.3
20260505013905 74 255 0.0 0.0 0.00 0.00 0.00 39 1009.3
20260505013405 74 256 0.0 0.0 0.00 0.00 0.00 39 1009.3
20260505012905 74 256 0.0 0.0 0.00 0.00 0.00 39 1009.2
20260505012405 74 255 0.0 0.0 0.00 0.00 0.00 39 1009.3
20260505011405 74 256 0.0 0.0 0.00 0.00 0.00 39 1009.3
20260505010904 74 241 0.0 0.0 0.00 0.00 0.00 39 1009.2
20260505010404 74 240 0.0 0.0 0.00 0.00 0.00 39 1009.2
20260505005905 74 240 0.0 0.0 0.00 0.00 0.00 39 1009.3
20260505005405 74 240 0.0 0.0 0.00 0.00 0.00 39 1009.3
20260505004905 75 240 0.0 0.0 0.00 0.00 0.00 39 1009.4
20260505004405 75 240 0.0 0.0 0.00 0.00 0.00 39 1009.4
20260505003405 75 240 0.0 0.0 0.00 0.00 0.00 39 1009.4
20260505002406 75 240 0.0 1.0 0.00 0.00 0.00 38 1009.6
20260505000905 75 240 0.0 0.0 0.00 0.00 0.00 39 1009.7
20260504235905 75 245 0.0 0.0 0.00 0.00 0.00 39 1009.8
20260504235404 75 244 0.0 0.0 0.00 0.00 0.00 39 1009.8
20260504234905 75 244 0.0 0.0 0.00 0.00 0.00 39 1009.7
20260504234404 75 245 0.0 1.0 0.00 0.00 0.00 40 1009.7
20260504233904 75 245 0.0 0.0 0.00 0.00 0.00 40 1009.7
20260504233404 75 245 0.0 0.0 0.00 0.00 0.00 40 1009.7
20260504232904 75 245 0.0 0.0 0.00 0.00 0.00 40 1009.7
20260504232405 75 243 0.0 3.0 0.00 0.00 0.00 40 1009.6
20260504231905 75 256 0.0 0.0 0.00 0.00 0.00 40 1009.6
20260504231405 75 255 0.0 0.0 0.00 0.00 0.00 40 1009.7
20260504230905 75 255 0.0 0.0 0.00 0.00 0.00 39 1009.6
20260504230405 75 255 0.0 0.0 0.00 0.00 0.00 40 1009.7
20260504225905 75 254 0.0 0.0 0.00 0.00 0.00 39 1009.7
20260504224905 75 254 0.0 0.0 0.00 0.00 0.00 40 1009.6
20260504224404 75 254 0.0 0.0 0.00 0.00 0.00 40 1009.8
20260504223904 75 254 0.0 0.0 0.00 0.00 0.00 40 1009.8
20260504223405 75 254 0.0 0.0 0.00 0.00 0.00 40 1009.8
20260504222904 75 254 0.0 0.0 0.00 0.00 0.00 40 1009.7
20260504222405 76 255 0.0 0.0 0.00 0.00 0.00 40 1009.8
20260504221405 76 254 0.0 0.0 0.00 0.00 0.00 40 1010.2
20260504220905 76 254 0.0 0.0 0.00 0.00 0.00 40 1010.2
20260504220405 76 254 0.0 0.0 0.00 0.00 0.00 40 1010.3
20260504215905 76 254 0.0 0.0 0.00 0.00 0.00 40 1010.4
20260504215405 75 254 0.0 0.0 0.00 0.00 0.00 41 1010.5
20260504214905 75 254 0.0 1.0 0.00 0.00 0.00 40 1010.5
20260504213904 75 255 0.0 2.0 0.00 0.00 0.00 40 1010.5
20260504213405 75 256 0.0 1.0 0.00 0.00 0.00 40 1010.5
20260504212904 75 264 0.0 0.0 0.00 0.00 0.00 40 1010.6
20260504212405 74 241 0.0 0.0 0.00 0.00 0.00 41 1010.8
20260504211905 74 241 0.0 0.0 0.00 0.00 0.00 41 1010.8
20260504211404 74 241 0.0 0.0 0.00 0.00 0.00 41 1011.0
20260504210904 74 241 0.0 0.0 0.00 0.00 0.00 41 1011.1
20260504210405 74 241 0.0 0.0 0.00 0.00 0.00 41 1011.1
20260504205904 74 241 0.0 0.0 0.00 0.00 0.00 41 1011.0
20260504205404 75 241 0.0 2.0 0.00 0.00 0.00 41 1010.9
20260504204905 75 258 0.0 0.0 0.00 0.00 0.00 41 1010.9
20260504204405 74 258 0.0 0.0 0.00 0.00 0.00 42 1011.1
20260504203904 75 258 0.0 1.0 0.00 0.00 0.00 41 1011.1
20260504203405 75 284 0.0 7.0 0.00 0.00 0.00 42 1011.1
20260504202905 75 265 0.0 0.0 0.00 0.00 0.00 42 1011.1
20260504202404 75 266 0.0 0.0 0.00 0.00 0.00 43 1011.4
20260504201906 74 266 0.0 1.0 0.00 0.00 0.00 43 1011.3
20260504201404 74 263 0.0 0.0 0.00 0.00 0.00 44 1011.3
20260504200405 74 264 0.0 0.0 0.00 0.00 0.00 44 1011.4
20260504195905 73 264 0.0 1.0 0.00 0.00 0.00 45 1011.4
20260504195405 73 263 0.0 0.0 0.00 0.00 0.00 45 1011.0
20260504194904 73 262 0.0 0.0 0.00 0.00 0.00 46 1011.2
20260504194405 73 262 0.0 0.0 0.00 0.00 0.00 46 1010.9
20260504193904 73 262 0.0 1.0 0.00 0.00 0.00 46 1010.9
20260504193404 73 241 0.0 0.0 0.00 0.00 0.00 46 1011.3
20260504192904 73 241 0.0 0.0 0.00 0.00 0.00 46 1011.2
20260504192405 73 241 0.0 0.0 0.00 0.00 0.00 46 1010.9
20260504191904 72 241 0.0 0.0 0.00 0.00 0.00 46 1011.0
20260504191405 72 241 0.0 0.0 0.00 0.00 0.00 46 1011.4
20260504190905 72 241 0.0 0.0 0.00 0.00 0.00 46 1011.2
20260504190404 73 241 0.0 0.0 0.00 0.00 0.00 47 1011.3
20260504185904 72 242 0.0 0.0 0.00 0.00 0.00 47 1011.2
20260504185404 72 242 0.0 0.0 0.00 0.00 0.00 47 1011.1
20260504184904 72 242 0.0 0.0 0.00 0.00 0.00 47 1011.3
20260504184405 72 241 0.0 0.0 0.00 0.00 0.00 48 1011.3
20260504183905 72 242 0.0 0.0 0.00 0.00 0.00 48 1011.3
20260504183404 72 242 0.0 0.0 0.00 0.00 0.00 49 1011.4
20260504182904 72 242 0.0 1.0 0.00 0.00 0.00 48 1011.5
20260504182404 71 242 0.0 0.0 0.00 0.00 0.00 49 1011.5
20260504181904 71 242 0.0 0.0 0.00 0.00 0.00 50 1011.5
20260504181404 71 242 0.0 0.0 0.00 0.00 0.00 50 1011.8
20260504180404 71 261 0.0 0.0 0.00 0.00 0.00 51 1011.9
20260504175904 71 261 0.0 0.0 0.00 0.00 0.00 50 1011.9
20260504173904 70 259 0.0 0.0 0.00 0.00 0.00 52 1011.0
20260504173404 70 259 0.0 0.0 0.00 0.00 0.00 51 1010.9
20260504172904 70 259 0.0 0.0 0.00 0.00 0.00 51 1010.7
20260504172405 70 259 0.0 0.0 0.00 0.00 0.00 51 1011.1
20260504171905 70 259 0.0 0.0 0.00 0.00 0.00 51 1011.4
20260504171405 70 259 0.0 0.0 0.00 0.00 0.00 51 1011.1
20260504170904 69 244 0.0 0.0 0.00 0.00 0.00 51 1011.4
20260504170404 70 249 0.0 1.0 0.00 0.00 0.00 51 1011.3
20260504160404 70 257 0.0 0.0 0.00 0.00 0.00 47 1011.1
20260504150906 71 272 0.0 0.0 0.00 0.00 0.00 43 1010.8
20260504150404 71 273 0.0 0.0 0.00 0.00 0.00 43 1010.8
20260504130405 70 266 0.0 0.0 0.00 0.00 0.00 44 1009.4
20260504110404 71 267 0.0 0.0 0.00 0.00 0.00 42 1008.3
20260504081904 76 268 0.0 0.0 0.00 0.00 0.00 38 1007.7
20260504081404 76 268 0.0 0.0 0.00 0.00 0.00 37 1007.9
20260504080404 76 269 0.0 0.0 0.00 0.00 0.00 37 1007.8
20260504045904 80 254 0.0 0.0 0.00 0.00 0.00 26 1007.9
20260504045404 80 229 0.0 0.0 0.00 0.00 0.00 26 1007.9
20260504044904 80 229 0.0 0.0 0.00 0.00 0.00 26 1007.8
20260504044404 80 229 0.0 0.0 0.00 0.00 0.00 26 1007.8
20260504043904 80 228 0.0 0.0 0.00 0.00 0.00 26 1007.8
20260504043404 80 232 0.0 0.0 0.00 0.00 0.00 25 1007.8
20260504042905 80 232 0.0 0.0 0.00 0.00 0.00 25 1007.8
20260504042405 81 231 0.0 0.0 0.00 0.00 0.00 25 1007.8
20260504041404 81 247 0.0 1.0 0.00 0.00 0.00 25 1007.4
20260504040903 81 213 0.0 5.0 0.00 0.00 0.00 24 1007.3
20260504040404 81 238 0.0 2.0 0.00 0.00 0.00 24 1007.3